,,PA_Meas_PMT16A,,PR_Meas_QMR101_102,,RH_Meas_QMH101,,SR_Meas_QMS101,,TA_Meas_QMH101,,GenWind,,GenWind,
time,status,PA,status,PR,status,RH,status,SR,status,TA,status,DirAvg,status,SpdAvg,
2017-02-02, 14:47:04,VALID,919.303,VALID,0,INVALID,131.733,VALID,129.252,VALID,18.9633,VALID,177,VALID,1.07617,
2017-02-02, 15:05:04,VALID,919.412,VALID,0,INVALID,130.551,VALID,131.723,VALID,19.3923,VALID,147,VALID,1.75625,
2017-02-02, 15:06:04,VALID,919.407,VALID,0,INVALID,130.597,VALID,134.087,VALID,19.4118,VALID,134,VALID,1.6832,
2017-02-02, 15:07:04,VALID,919.452,VALID,0,INVALID,130.62,VALID,136.558,VALID,19.4508,VALID,160,VALID,1.59687,
2017-02-02, 15:08:04,VALID,919.396,VALID,0,INVALID,130.444,VALID,139.244,VALID,19.4703,VALID,155,VALID,1.73555,
2017-02-02, 15:09:04,VALID,919.427,VALID,0,INVALID,130.368,VALID,142.145,VALID,19.4703,VALID,157,VALID,1.81562,
2017-02-02, 15:10:04,VALID,919.397,VALID,0,INVALID,130.376,VALID,144.831,VALID,19.4703,VALID,158,VALID,1.33789,
2017-02-02, 15:11:04,VALID,919.428,VALID,0,INVALID,130.536,VALID,147.624,VALID,19.5093,VALID,157,VALID,1.55156,
2017-02-02, 15:12:04,VALID,919.412,VALID,0,INVALID,130.551,VALID,150.418,VALID,19.5288,VALID,162,VALID,1.45625,
2017-02-02, 15:13:04,VALID,919.415,VALID,0,INVALID,130.482,VALID,153.641,VALID,19.5483,VALID,145,VALID,1.58828,
2017-02-02, 15:14:04,VALID,919.426,VALID,0,INVALID,130.879,VALID,156.864,VALID,19.6458,VALID,169,VALID,0.594531,
2017-02-02, 15:15:04,VALID,919.427,VALID,0,INVALID,130.597,VALID,160.625,VALID,19.6653,VALID,192,VALID,0,
2017-02-02, 15:16:04,VALID,919.444,VALID,0,INVALID,130.574,VALID,164.815,VALID,19.7238,VALID,157,VALID,0,
2017-02-02, 15:17:04,VALID,919.469,VALID,0,INVALID,130.139,VALID,169.327,VALID,19.6848,VALID,163,VALID,1.63437,
2017-02-02, 15:18:04,VALID,919.443,VALID,0,INVALID,130.277,VALID,173.517,VALID,19.7028,VALID,176,VALID,0.908594,
2017-02-02, 15:19:04,VALID,919.473,VALID,0,INVALID,130.322,VALID,177.278,VALID,19.7433,VALID,168,VALID,1.64844,
2017-02-02, 15:20:04,VALID,919.476,VALID,0,INVALID,130.048,VALID,180.609,VALID,19.7013,VALID,178,VALID,1.74375,
2017-02-02, 15:21:04,VALID,919.487,VALID,0,INVALID,130.055,VALID,184.047,VALID,19.7418,VALID,183,VALID,1.19922,
2017-02-02, 15:22:04,VALID,919.475,VALID,0,INVALID,130.368,VALID,187.055,VALID,19.7808,VALID,172,VALID,0.672656,
2017-02-02, 15:23:04,VALID,919.459,VALID,0,INVALID,130.33,VALID,190.493,VALID,19.7613,VALID,164,VALID,1.9,
2017-02-02, 15:24:04,VALID,919.458,VALID,0,INVALID,130.574,VALID,194.146,VALID,19.7808,VALID,173,VALID,1.18398,
2017-02-02, 15:25:04,VALID,919.456,VALID,0,INVALID,130.909,VALID,198.659,VALID,19.8783,VALID,184,VALID,0,
2017-02-02, 15:26:04,VALID,919.483,VALID,0,INVALID,130.909,VALID,203.708,VALID,19.9368,VALID,191,VALID,0,
2017-02-02, 15:27:04,VALID,919.469,VALID,0,INVALID,130.574,VALID,210.155,VALID,19.9563,VALID,175,VALID,0.947266,
2017-02-02, 15:28:04,VALID,919.512,VALID,0,INVALID,130.391,VALID,220.362,VALID,20.0538,VALID,187,VALID,0.185547,
2017-02-02, 15:29:04,VALID,919.488,VALID,0,INVALID,130.238,VALID,264.305,VALID,20.1513,VALID,168,VALID,0,
2017-02-02, 15:30:04,VALID,919.517,VALID,0,INVALID,130.17,VALID,315.232,VALID,20.2684,VALID,173,VALID,0,
2017-02-02, 15:31:04,VALID,919.529,VALID,0,INVALID,129.758,VALID,251.305,VALID,20.3659,VALID,157,VALID,0,
2017-02-02, 15:32:04,VALID,919.564,VALID,0,INVALID,128.904,VALID,290.199,VALID,20.3854,VALID,152,VALID,0.000390625,
2017-02-02, 15:33:04,VALID,919.594,VALID,0,INVALID,128.348,VALID,234.866,VALID,20.3643,VALID,163,VALID,0.391797,
2017-02-02, 15:34:04,VALID,919.604,VALID,0,INVALID,127.738,VALID,228.205,VALID,20.3643,VALID,162,VALID,0,
2017-02-02, 15:35:04,VALID,919.624,VALID,0,INVALID,128.203,VALID,220.684,VALID,20.4049,VALID,178,VALID,0,
2017-02-02, 15:36:04,VALID,919.621,VALID,0,INVALID,128.104,VALID,215.527,VALID,20.4845,VALID,158,VALID,0,
2017-02-02, 15:37:04,VALID,919.618,VALID,0,INVALID,128.035,VALID,213.915,VALID,20.5414,VALID,184,VALID,0,
2017-02-02, 15:38:04,VALID,919.628,VALID,0,INVALID,127.685,VALID,213.915,VALID,20.5999,VALID,199,VALID,0,
2017-02-02, 15:39:04,VALID,919.613,VALID,0,INVALID,127.57,VALID,214.238,VALID,20.639,VALID,179,VALID,0,
2017-02-02, 15:40:04,VALID,919.639,VALID,0,INVALID,126.838,VALID,214.667,VALID,20.678,VALID,186,VALID,0.202344,
2017-02-02, 15:41:04,VALID,919.633,VALID,0,INVALID,127.639,VALID,214.667,VALID,20.7365,VALID,188,VALID,0,
2017-02-02, 15:42:04,VALID,919.646,VALID,0,INVALID,127.159,VALID,213.915,VALID,20.7349,VALID,171,VALID,0,
2017-02-02, 15:43:04,VALID,919.648,VALID,0,INVALID,127.486,VALID,213.915,VALID,20.8145,VALID,179,VALID,0,
2017-02-02, 15:44:04,VALID,919.643,VALID,0,INVALID,127.105,VALID,214.453,VALID,20.8535,VALID,167,VALID,0,
2017-02-02, 15:45:04,VALID,919.681,VALID,0,INVALID,122.036,VALID,215.42,VALID,20.8129,VALID,173,VALID,0,
2017-02-02, 15:46:04,VALID,919.675,VALID,0,INVALID,118.857,VALID,216.816,VALID,20.8535,VALID,179,VALID,0,
2017-02-02, 15:47:04,VALID,919.662,VALID,0,INVALID,120.595,VALID,217.998,VALID,20.834,VALID,171,VALID,0.00585938,
2017-02-02, 15:48:04,VALID,919.677,VALID,0,INVALID,124.612,VALID,218.428,VALID,20.8129,VALID,178,VALID,0,
2017-02-02, 15:49:04,VALID,919.677,VALID,0,INVALID,125.298,VALID,215.42,VALID,20.7934,VALID,158,VALID,0,
2017-02-02, 15:50:04,VALID,919.649,VALID,0,INVALID,126.328,VALID,212.733,VALID,20.7739,VALID,215,VALID,0,
2017-02-02, 15:51:04,VALID,919.642,VALID,0,INVALID,126.343,VALID,209.833,VALID,20.7934,VALID,176,VALID,0,
2017-02-02, 15:52:04,VALID,919.618,VALID,0,INVALID,127.021,VALID,207.791,VALID,20.8129,VALID,163,VALID,0,
2017-02-02, 15:53:04,VALID,919.616,VALID,0,INVALID,126.892,VALID,206.502,VALID,20.8129,VALID,148,VALID,0.172656,
2017-02-02, 15:54:04,VALID,919.627,VALID,0,INVALID,126.602,VALID,205.642,VALID,20.7544,VALID,161,VALID,0,
2017-02-02, 15:55:04,VALID,919.616,VALID,0,INVALID,126.762,VALID,204.998,VALID,20.7544,VALID,189,VALID,0,
2017-02-02, 15:56:04,VALID,919.645,VALID,0,INVALID,126.381,VALID,204.783,VALID,20.8129,VALID,141,VALID,0,
2017-02-02, 15:57:04,VALID,919.648,VALID,0,INVALID,126.541,VALID,203.601,VALID,20.7934,VALID,120,VALID,0,
2017-02-02, 15:58:04,VALID,919.62,VALID,0,INVALID,126.152,VALID,201.345,VALID,20.7349,VALID,139,VALID,0,
2017-02-02, 15:59:04,VALID,919.662,VALID,0,INVALID,126.335,VALID,198.874,VALID,20.6764,VALID,154,VALID,0,
2017-02-02, 16:00:04,VALID,919.664,VALID,0,INVALID,127.677,VALID,196.94,VALID,20.6959,VALID,169,VALID,0,
2017-02-02, 16:01:04,VALID,919.702,VALID,0,INVALID,127.746,VALID,195.865,VALID,20.7349,VALID,163,VALID,0,
2017-02-02, 16:02:04,VALID,919.655,VALID,0,INVALID,125.931,VALID,196.188,VALID,20.6764,VALID,161,VALID,0,
2017-02-02, 16:03:04,VALID,919.655,VALID,0,INVALID,127.151,VALID,197.477,VALID,20.6374,VALID,155,VALID,0,
2017-02-02, 16:04:04,VALID,919.653,VALID,0,INVALID,127.875,VALID,198.981,VALID,20.6179,VALID,145,VALID,0,
2017-02-02, 16:05:04,VALID,919.686,VALID,0,INVALID,127.265,VALID,200.27,VALID,20.5383,VALID,152,VALID,0,
2017-02-02, 16:06:04,VALID,919.684,VALID,0,INVALID,128.272,VALID,201.774,VALID,20.5984,VALID,155,VALID,0,
2017-02-02, 16:07:04,VALID,919.703,VALID,0,INVALID,127.037,VALID,209.403,VALID,20.5578,VALID,144,VALID,0,
2017-02-02, 16:08:04,VALID,919.721,VALID,0,INVALID,127.555,VALID,249.801,VALID,20.6374,VALID,153,VALID,0,
2017-02-02, 16:09:04,VALID,919.688,VALID,0,INVALID,127.951,VALID,232.825,VALID,20.7154,VALID,159,VALID,0,
2017-02-02, 16:10:04,VALID,919.687,VALID,0,INVALID,128.127,VALID,210.477,VALID,20.8129,VALID,174,VALID,0,
2017-02-02, 16:11:04,VALID,919.7,VALID,0,INVALID,126.076,VALID,207.361,VALID,20.8699,VALID,145,VALID,0,
2017-02-02, 16:12:04,VALID,919.721,VALID,0,INVALID,126.274,VALID,208.114,VALID,20.9284,VALID,141,VALID,0,
2017-02-02, 16:13:04,VALID,919.748,VALID,0,INVALID,126.503,VALID,209.403,VALID,21.008,VALID,145,VALID,0,
2017-02-02, 16:14:04,VALID,919.684,VALID,0,INVALID,125.832,VALID,211.337,VALID,21.0665,VALID,119,VALID,0,
2017-02-02, 16:15:04,VALID,919.735,VALID,0,INVALID,126.046,VALID,214.238,VALID,21.1836,VALID,156,VALID,0,
2017-02-02, 16:16:04,VALID,919.758,VALID,0,INVALID,121.921,VALID,217.783,VALID,21.3006,VALID,162,VALID,0,
2017-02-02, 16:17:04,VALID,919.757,VALID,0,INVALID,110.501,VALID,222.081,VALID,21.377,VALID,162,VALID,0,
2017-02-02, 16:18:04,VALID,919.718,VALID,0,VALID,103.061,VALID,226.271,VALID,21.4372,VALID,162,VALID,0,
2017-02-02, 16:19:04,VALID,919.762,VALID,0,VALID,104,VALID,230.246,VALID,21.455,VALID,162,VALID,0,
2017-02-02, 16:20:04,VALID,919.752,VALID,0,VALID,104,VALID,233.899,VALID,21.5136,VALID,162,VALID,0,
2017-02-02, 16:21:04,VALID,919.764,VALID,0,VALID,104,VALID,237.982,VALID,21.5737,VALID,162,VALID,0,
2017-02-02, 16:22:04,VALID,919.794,VALID,0,VALID,103.145,VALID,241.957,VALID,21.6891,VALID,162,VALID,0,
2017-02-02, 16:23:04,VALID,919.752,VALID,0,VALID,102.039,VALID,245.825,VALID,21.8452,VALID,162,VALID,0,
2017-02-02, 16:24:04,VALID,919.776,VALID,0,VALID,97.7398,VALID,250.23,VALID,21.9623,VALID,166,VALID,0,
2017-02-02, 16:25:04,VALID,919.761,VALID,0,VALID,93.3335,VALID,254.421,VALID,21.9818,VALID,207,VALID,0,
2017-02-02, 16:26:04,VALID,919.754,VALID,0,VALID,97.2672,VALID,258.826,VALID,22.0013,VALID,200,VALID,0,
2017-02-02, 16:27:04,VALID,919.791,VALID,0,VALID,96.6039,VALID,263.016,VALID,22.0794,VALID,200,VALID,0,
2017-02-02, 16:28:04,VALID,919.788,VALID,0,VALID,96.421,VALID,267.099,VALID,22.2176,VALID,195,VALID,0,
2017-02-02, 16:29:04,VALID,919.754,VALID,0,VALID,92.4034,VALID,270.859,VALID,22.255,VALID,191,VALID,0,
2017-02-02, 16:30:04,VALID,919.799,VALID,0,VALID,92.6855,VALID,275.157,VALID,22.333,VALID,194,VALID,0,
2017-02-02, 16:31:04,VALID,919.765,VALID,0,VALID,90.6577,VALID,281.603,VALID,22.3525,VALID,222,VALID,0,
2017-02-02, 16:32:04,VALID,919.795,VALID,0,VALID,91.3133,VALID,290.736,VALID,22.294,VALID,222,VALID,0,
2017-02-02, 16:33:04,VALID,919.806,VALID,0,VALID,93.5164,VALID,289.124,VALID,22.255,VALID,219,VALID,0,
2017-02-02, 16:34:04,VALID,919.767,VALID,0,VALID,94.6142,VALID,292.67,VALID,22.372,VALID,177,VALID,0,
2017-02-02, 16:35:04,VALID,919.782,VALID,0,VALID,90.0707,VALID,297.397,VALID,22.3899,VALID,174,VALID,0,
2017-02-02, 16:36:04,VALID,919.783,VALID,0,VALID,88.6908,VALID,302.554,VALID,22.3916,VALID,155,VALID,0,
2017-02-02, 16:37:04,VALID,919.808,VALID,0,VALID,88.5536,VALID,306.207,VALID,22.333,VALID,145,VALID,0,
2017-02-02, 16:38:04,VALID,919.812,VALID,0,VALID,89.4303,VALID,310.397,VALID,22.3703,VALID,213,VALID,0,
2017-02-02, 16:39:04,VALID,919.786,VALID,0,VALID,93.951,VALID,299.438,VALID,22.4874,VALID,207,VALID,0,
2017-02-02, 16:40:04,VALID,919.804,VALID,0,VALID,92.6702,VALID,297.397,VALID,22.6843,VALID,206,VALID,0,
2017-02-02, 16:41:04,VALID,919.8,VALID,0,VALID,91.2142,VALID,297.827,VALID,22.8191,VALID,173,VALID,0,
2017-02-02, 16:42:04,VALID,919.821,VALID,0,VALID,87.7531,VALID,300.298,VALID,22.9557,VALID,165,VALID,0,
2017-02-02, 16:43:04,VALID,919.815,VALID,0,VALID,86.0684,VALID,305.025,VALID,22.9948,VALID,123,VALID,0,
2017-02-02, 16:44:04,VALID,919.795,VALID,0,VALID,87.2805,VALID,309.645,VALID,22.9557,VALID,97,VALID,0,
2017-02-02, 16:45:04,VALID,919.801,VALID,0,VALID,86.0074,VALID,316.629,VALID,23.0143,VALID,124,VALID,0,
2017-02-02, 16:46:04,VALID,919.784,VALID,0,VALID,84.1854,VALID,324.15,VALID,22.8989,VALID,141,VALID,0,
2017-02-02, 16:47:04,VALID,919.835,VALID,0,VALID,83.9872,VALID,331.671,VALID,22.8191,VALID,156,VALID,0,
2017-02-02, 16:48:04,VALID,919.794,VALID,0,VALID,84.6733,VALID,338.762,VALID,22.8582,VALID,158,VALID,0,
2017-02-02, 16:49:04,VALID,919.806,VALID,0,VALID,85.2832,VALID,345.638,VALID,22.8777,VALID,137,VALID,0,
2017-02-02, 16:50:04,VALID,919.825,VALID,0,VALID,84.3836,VALID,356.167,VALID,22.977,VALID,139,VALID,0,
2017-02-02, 16:51:04,VALID,919.795,VALID,0,VALID,84.0939,VALID,372.928,VALID,23.0924,VALID,139,VALID,0,
2017-02-02, 16:52:04,VALID,919.827,VALID,0,VALID,81.9746,VALID,372.069,VALID,23.0924,VALID,118,VALID,0,
2017-02-02, 16:53:04,VALID,919.795,VALID,0,VALID,83.0495,VALID,378.193,VALID,22.9362,VALID,120,VALID,0,
2017-02-02, 16:54:04,VALID,919.805,VALID,0,VALID,84.6123,VALID,386.143,VALID,22.938,VALID,105,VALID,0,
2017-02-02, 16:55:04,VALID,919.787,VALID,0,VALID,84.3836,VALID,387.433,VALID,22.9753,VALID,148,VALID,0,
2017-02-02, 16:56:04,VALID,919.796,VALID,0,VALID,83.0571,VALID,419.987,VALID,23.1314,VALID,149,VALID,0,
2017-02-02, 16:57:04,VALID,919.775,VALID,0,VALID,82.3863,VALID,458.559,VALID,23.2875,VALID,182,VALID,0,
2017-02-02, 16:58:04,VALID,919.79,VALID,0,VALID,82.8513,VALID,543.867,VALID,23.4241,VALID,163,VALID,0,
2017-02-02, 16:59:04,VALID,919.774,VALID,0,VALID,81.845,VALID,480.799,VALID,23.3869,VALID,153,VALID,0,
2017-02-02, 17:00:04,VALID,919.795,VALID,0,VALID,81.0674,VALID,427.401,VALID,23.2875,VALID,152,VALID,0,
2017-02-02, 17:01:04,VALID,919.784,VALID,0,VALID,80.6481,VALID,411.07,VALID,23.3656,VALID,189,VALID,0,
2017-02-02, 17:02:04,VALID,919.805,VALID,0,VALID,81.5782,VALID,413.326,VALID,23.5412,VALID,189,VALID,0,
2017-02-02, 17:03:04,VALID,919.782,VALID,0,VALID,81.3495,VALID,408.169,VALID,23.7169,VALID,134,VALID,0,
2017-02-02, 17:04:04,VALID,919.812,VALID,0,VALID,82.9199,VALID,413.756,VALID,23.6974,VALID,106,VALID,0,
2017-02-02, 17:05:04,VALID,919.807,VALID,0,VALID,80.6786,VALID,412.574,VALID,23.8358,VALID,174,VALID,0,
2017-02-02, 17:06:04,VALID,919.798,VALID,0,VALID,79.5961,VALID,414.293,VALID,24.0115,VALID,190,VALID,0,
2017-02-02, 17:07:04,VALID,919.813,VALID,0,VALID,77.6826,VALID,419.45,VALID,24.1677,VALID,188,VALID,0,
2017-02-02, 17:08:04,VALID,919.809,VALID,0,VALID,78.0714,VALID,422.996,VALID,24.2458,VALID,189,VALID,0,
2017-02-02, 17:09:04,VALID,919.802,VALID,0,VALID,76.0436,VALID,417.624,VALID,24.244,VALID,104,VALID,0,
2017-02-02, 17:10:04,VALID,919.811,VALID,0,VALID,78.7499,VALID,416.549,VALID,24.0488,VALID,109,VALID,0,
2017-02-02, 17:11:04,VALID,919.808,VALID,0,VALID,76.8745,VALID,418.054,VALID,24.0878,VALID,108,VALID,0,
2017-02-02, 17:12:04,VALID,919.784,VALID,0,VALID,76.2799,VALID,419.128,VALID,24.2635,VALID,108,VALID,0,
2017-02-02, 17:13:04,VALID,919.792,VALID,0,VALID,77.5835,VALID,413.756,VALID,24.3221,VALID,105,VALID,0,
2017-02-02, 17:14:04,VALID,919.806,VALID,0,VALID,77.3396,VALID,404.086,VALID,24.4411,VALID,118,VALID,0,
2017-02-02, 17:15:04,VALID,919.791,VALID,0,VALID,76.0664,VALID,391.408,VALID,24.5368,VALID,158,VALID,0,
2017-02-02, 17:16:04,VALID,919.78,VALID,0,VALID,73.8252,VALID,387.54,VALID,24.7126,VALID,101,VALID,0,
2017-02-02, 17:17:04,VALID,919.802,VALID,0,VALID,71.5,VALID,388.83,VALID,24.7711,VALID,101,VALID,0,
2017-02-02, 17:18:04,VALID,919.784,VALID,0,VALID,71.6525,VALID,390.226,VALID,24.9274,VALID,100,VALID,0,
2017-02-02, 17:19:04,VALID,919.738,VALID,0,VALID,71.622,VALID,389.152,VALID,25.0231,VALID,51,VALID,0,
2017-02-02, 17:20:04,VALID,919.75,VALID,0,VALID,71.2561,VALID,387.433,VALID,24.8492,VALID,103,VALID,0,
2017-02-02, 17:21:04,VALID,919.713,VALID,0,VALID,74.0844,VALID,384.424,VALID,24.5368,VALID,128,VALID,0,
2017-02-02, 17:22:04,VALID,919.709,VALID,0,VALID,74.5036,VALID,383.887,VALID,24.3788,VALID,128,VALID,0,
2017-02-02, 17:23:04,VALID,919.712,VALID,0,VALID,74.5951,VALID,384.639,VALID,24.3202,VALID,128,VALID,0,
2017-02-02, 17:24:04,VALID,919.697,VALID,0,VALID,75.1059,VALID,379.912,VALID,24.4002,VALID,128,VALID,0,
2017-02-02, 17:25:04,VALID,919.659,VALID,0,VALID,76.4552,VALID,376.151,VALID,24.535,VALID,127,VALID,0,
2017-02-02, 17:26:04,VALID,919.639,VALID,0,VALID,76.9813,VALID,372.928,VALID,24.4178,VALID,118,VALID,0.0613281,
2017-02-02, 17:27:04,VALID,919.6,VALID,0,VALID,77.2328,VALID,370.242,VALID,24.2635,VALID,111,VALID,0.0277344,
2017-02-02, 17:28:04,VALID,919.575,VALID,0,VALID,79.4055,VALID,368.845,VALID,24.2049,VALID,69,VALID,0,
2017-02-02, 17:29:04,VALID,919.624,VALID,0,VALID,79.8324,VALID,371.746,VALID,24.3007,VALID,70,VALID,0,
2017-02-02, 17:30:04,VALID,919.597,VALID,0,VALID,78.1324,VALID,380.986,VALID,24.3593,VALID,161,VALID,0,
2017-02-02, 17:31:04,VALID,919.575,VALID,0,VALID,78.2315,VALID,394.202,VALID,24.3983,VALID,169,VALID,0,
2017-02-02, 17:32:04,VALID,919.555,VALID,0,VALID,78.1476,VALID,409.136,VALID,24.4374,VALID,169,VALID,0,
2017-02-02, 17:33:04,VALID,919.578,VALID,0,VALID,77.2176,VALID,432.88,VALID,24.535,VALID,164,VALID,0,
2017-02-02, 17:34:04,VALID,919.555,VALID,0,VALID,79.1082,VALID,449.426,VALID,24.6131,VALID,145,VALID,0,
2017-02-02, 17:35:04,VALID,919.55,VALID,0,VALID,76.6382,VALID,455.121,VALID,24.7497,VALID,187,VALID,0.497656,
2017-02-02, 17:36:04,VALID,919.524,VALID,0,VALID,75.9063,VALID,456.303,VALID,24.9255,VALID,187,VALID,0.379297,
2017-02-02, 17:37:04,VALID,919.539,VALID,0,VALID,73.9319,VALID,452.972,VALID,25.0817,VALID,187,VALID,0.300391,
2017-02-02, 17:38:04,VALID,919.523,VALID,0,VALID,72.2471,VALID,442.443,VALID,25.2183,VALID,212,VALID,0.725391,
2017-02-02, 17:39:04,VALID,919.519,VALID,0,VALID,72.6359,VALID,438.038,VALID,25.2183,VALID,212,VALID,0.986719,
2017-02-02, 17:40:04,VALID,919.532,VALID,0,VALID,72.6435,VALID,446.311,VALID,25.1774,VALID,210,VALID,0.201172,
2017-02-02, 17:41:04,VALID,919.533,VALID,0,VALID,74.5875,VALID,462.427,VALID,25.275,VALID,218,VALID,0.0765625,
2017-02-02, 17:42:04,VALID,919.5,VALID,0,VALID,77.4234,VALID,488.535,VALID,25.3726,VALID,218,VALID,0.437109,
2017-02-02, 17:43:04,VALID,919.476,VALID,0,VALID,75.8606,VALID,499.601,VALID,25.4527,VALID,217,VALID,0.0691406,
2017-02-02, 17:44:04,VALID,919.457,VALID,0,VALID,75.3727,VALID,480.047,VALID,25.5523,VALID,252,VALID,0.0121094,
2017-02-02, 17:45:04,VALID,919.449,VALID,0,VALID,76.2494,VALID,467.369,VALID,25.5132,VALID,309,VALID,0,
2017-02-02, 17:46:04,VALID,919.438,VALID,0,VALID,72.6588,VALID,461.137,VALID,25.3941,VALID,308,VALID,0,
2017-02-02, 17:47:04,VALID,919.442,VALID,0,VALID,72.735,VALID,462.964,VALID,25.4156,VALID,302,VALID,0,
2017-02-02, 17:48:04,VALID,919.379,VALID,0,VALID,74.8772,VALID,476.824,VALID,25.2203,VALID,313,VALID,0,
2017-02-02, 17:49:04,VALID,919.382,VALID,0,VALID,75.5633,VALID,480.262,VALID,25.1617,VALID,312,VALID,0,
2017-02-02, 17:50:04,VALID,919.374,VALID,0,VALID,74.5799,VALID,496.378,VALID,25.0602,VALID,313,VALID,0,
2017-02-02, 17:51:04,VALID,919.335,VALID,0,VALID,75.0449,VALID,557.834,VALID,25.0602,VALID,2,VALID,0,
2017-02-02, 17:52:04,VALID,919.315,VALID,0,VALID,73.787,VALID,498.527,VALID,25.1774,VALID,339,VALID,0,
2017-02-02, 17:53:04,VALID,919.278,VALID,0,VALID,67.5816,VALID,822.569,VALID,25.2555,VALID,350,VALID,0,
2017-02-02, 17:54:04,VALID,919.288,VALID,0,VALID,67.8103,VALID,630.894,VALID,25.2555,VALID,324,VALID,0,
2017-02-02, 17:55:04,VALID,919.265,VALID,0,VALID,70.8292,VALID,509.808,VALID,25.5503,VALID,6,VALID,0,
2017-02-02, 17:56:04,VALID,919.261,VALID,0,VALID,72.148,VALID,469.84,VALID,25.8433,VALID,6,VALID,0,
2017-02-02, 17:57:04,VALID,919.26,VALID,0,VALID,67.0327,VALID,517.651,VALID,25.8823,VALID,279,VALID,0,
2017-02-02, 17:58:04,VALID,919.26,VALID,0,VALID,69.4341,VALID,610.051,VALID,25.687,VALID,252,VALID,0,
2017-02-02, 17:59:04,VALID,919.23,VALID,0,VALID,70.2117,VALID,593.72,VALID,25.4331,VALID,259,VALID,0,
2017-02-02, 18:00:04,VALID,919.215,VALID,0,VALID,74.9915,VALID,527.751,VALID,25.355,VALID,249,VALID,0,
2017-02-02, 18:01:04,VALID,919.228,VALID,0,VALID,71.8888,VALID,581.686,VALID,25.3726,VALID,257,VALID,0,
2017-02-02, 18:02:04,VALID,919.216,VALID,0,VALID,70.8673,VALID,789.8,VALID,25.4527,VALID,257,VALID,0,
2017-02-02, 18:03:04,VALID,919.173,VALID,0,VALID,72.9103,VALID,875.86,VALID,25.6089,VALID,323,VALID,0,
2017-02-02, 18:04:04,VALID,919.177,VALID,0,VALID,69.152,VALID,921.845,VALID,25.7827,VALID,321,VALID,0,
2017-02-02, 18:05:04,VALID,919.16,VALID,0,VALID,69.4188,VALID,782.924,VALID,26.1538,VALID,321,VALID,0,
2017-02-02, 18:06:04,VALID,919.163,VALID,0,VALID,65.1954,VALID,805.916,VALID,26.271,VALID,267,VALID,0,
2017-02-02, 18:07:04,VALID,919.143,VALID,0,VALID,67.3224,VALID,824.181,VALID,26.1733,VALID,267,VALID,0,
2017-02-02, 18:08:04,VALID,919.134,VALID,0,VALID,66.9107,VALID,919.159,VALID,26.1908,VALID,259,VALID,0,
2017-02-02, 18:09:04,VALID,919.104,VALID,0,VALID,66.5448,VALID,794.098,VALID,26.4447,VALID,18,VALID,1.49961,
2017-02-02, 18:10:04,VALID,919.131,VALID,0,VALID,66.3008,VALID,828.586,VALID,26.6205,VALID,358,VALID,0.00351562,
2017-02-02, 18:11:04,VALID,919.121,VALID,0,VALID,66.743,VALID,754.237,VALID,26.5444,VALID,292,VALID,0,
2017-02-02, 18:12:04,VALID,919.122,VALID,0,VALID,58.0294,VALID,850.289,VALID,26.4252,VALID,323,VALID,0,
2017-02-02, 18:13:04,VALID,919.099,VALID,0,VALID,60.8958,VALID,779.056,VALID,26.5619,VALID,27,VALID,0,
2017-02-02, 18:14:04,VALID,919.116,VALID,0,VALID,61.7192,VALID,800.222,VALID,26.7984,VALID,27,VALID,0,
2017-02-02, 18:15:04,VALID,919.102,VALID,0,VALID,64.1739,VALID,747.468,VALID,27.0307,VALID,342,VALID,0,
2017-02-02, 18:16:04,VALID,919.099,VALID,0,VALID,66.1712,VALID,829.231,VALID,27.1521,VALID,322,VALID,0,
2017-02-02, 18:17:04,VALID,919.096,VALID,0,VALID,61.7725,VALID,810.429,VALID,26.8765,VALID,273,VALID,0,
2017-02-02, 18:18:04,VALID,919.116,VALID,0,VALID,62.6492,VALID,800.437,VALID,26.7202,VALID,285,VALID,0.151953,
2017-02-02, 18:19:04,VALID,919.056,VALID,0,VALID,63.9605,VALID,746.286,VALID,26.5835,VALID,288,VALID,0,
2017-02-02, 18:20:04,VALID,919.064,VALID,0,VALID,65.5461,VALID,654.854,VALID,26.7768,VALID,288,VALID,0,
2017-02-02, 18:21:04,VALID,919.053,VALID,0,VALID,63.9376,VALID,679.243,VALID,27.1089,VALID,249,VALID,0,
2017-02-02, 18:22:04,VALID,919.026,VALID,0,VALID,60.934,VALID,646.903,VALID,27.1089,VALID,313,VALID,0,
2017-02-02, 18:23:04,VALID,919.036,VALID,0,VALID,62.5425,VALID,747.468,VALID,27.0307,VALID,287,VALID,0.858594,
2017-02-02, 18:24:04,VALID,919.031,VALID,0,VALID,60.8958,VALID,632.291,VALID,26.6987,VALID,255,VALID,0.163281,
2017-02-02, 18:25:04,VALID,919.038,VALID,0,VALID,63.6784,VALID,608.654,VALID,26.4468,VALID,244,VALID,0.248437,
2017-02-02, 18:26:04,VALID,919.021,VALID,0,VALID,59.3559,VALID,558.909,VALID,26.2494,VALID,338,VALID,0.237891,
2017-02-02, 18:27:04,VALID,919.017,VALID,0,VALID,60.4537,VALID,510.883,VALID,26.1928,VALID,18,VALID,1.175,
2017-02-02, 18:28:04,VALID,919.007,VALID,0,VALID,60.9492,VALID,500.031,VALID,26.1538,VALID,271,VALID,0.103125,
2017-02-02, 18:29:04,VALID,918.977,VALID,0,VALID,63.4878,VALID,505.081,VALID,26.1323,VALID,221,VALID,0.317578,
2017-02-02, 18:30:04,VALID,918.997,VALID,0,VALID,63.4344,VALID,561.917,VALID,26.0346,VALID,251,VALID,1.33789,
2017-02-02, 18:31:04,VALID,919,VALID,0,VALID,66.5219,VALID,745.749,VALID,25.8022,VALID,254,VALID,0.0761719,
2017-02-02, 18:32:04,VALID,918.967,VALID,0,VALID,64.738,VALID,718.889,VALID,25.6831,VALID,255,VALID,0,
2017-02-02, 18:33:04,VALID,918.928,VALID,0,VALID,65.6376,VALID,933.878,VALID,25.8393,VALID,5,VALID,0,
2017-02-02, 18:34:04,VALID,918.952,VALID,0,VALID,65.5233,VALID,927.539,VALID,26.2104,VALID,334,VALID,0,
2017-02-02, 18:35:04,VALID,918.935,VALID,0,VALID,61.399,VALID,750.262,VALID,26.5619,VALID,246,VALID,0.0738281,
2017-02-02, 18:36:04,VALID,918.91,VALID,0,VALID,60.103,VALID,722.757,VALID,26.5229,VALID,273,VALID,0.0417969,
2017-02-02, 18:37:04,VALID,918.879,VALID,0,VALID,62.047,VALID,788.833,VALID,26.601,VALID,280,VALID,0,
2017-02-02, 18:38:04,VALID,918.871,VALID,0,VALID,62.8398,VALID,748.22,VALID,26.7573,VALID,202,VALID,0,
2017-02-02, 18:39:04,VALID,918.86,VALID,0,VALID,63.2896,VALID,865.546,VALID,27.0307,VALID,38,VALID,0.532422,
2017-02-02, 18:40:04,VALID,918.833,VALID,0,VALID,61.1627,VALID,665.813,VALID,27.3649,VALID,5,VALID,1.63789,
2017-02-02, 18:41:04,VALID,918.83,VALID,0,VALID,61.3456,VALID,662.267,VALID,27.5191,VALID,347,VALID,1.35273,
2017-02-02, 18:42:04,VALID,918.787,VALID,0,VALID,59.5617,VALID,640.134,VALID,27.2651,VALID,17,VALID,2.26367,
2017-02-02, 18:43:04,VALID,918.783,VALID,0,VALID,59.5694,VALID,635.192,VALID,27.1479,VALID,353,VALID,1.23164,
2017-02-02, 18:44:04,VALID,918.774,VALID,0,VALID,59.455,VALID,672.904,VALID,26.9526,VALID,35,VALID,1.66016,
2017-02-02, 18:45:04,VALID,918.775,VALID,0,VALID,60.1564,VALID,668.714,VALID,26.6987,VALID,5,VALID,1.8707,